Regional Weather Roundup
Issued by NWS Bismarck, ND

Home | Current Version | Previous Version | Text Only | Print | Product List | Glossary On
Versions: 1 2 3 4 5 6 7 8 9 10 11 12 13 14 15 16 17 18 19 20 21 22 23 24 25 26 27 28 29 30 31 32 33 34 35 36 37 38 39 40 41 42 43 44 45 46 47 48 49 50
000
ASUS43 KBIS 091202
RWRBIS

NWR BROADCAST TEXT
NATIONAL WEATHER SERVICE BISMARCK ND
600 AM CST TUE FEB 09 2016

NOTE: "FAIR" INDICATES FEW OR NO CLOUDS BELOW 12,000 FEET WITH NO
SIGNIFICANT WEATHER AND/OR OBSTRUCTIONS TO VISIBILITY.


CITY           SKY/WX    TMP DP  RH WIND       PRES   REMARKS
WILLISTON      CLOUDY    27  21  78 NE5       30.20R
MINOT          CLOUDY    26   9  48 SW9       30.21S WCI  17
MINOT AFB      CLOUDY    23  12  63 CALM      30.20S
BISMARCK       CLOUDY    25  12  58 W5        30.27R WCI  19
DICKINSON      CLOUDY    23  17  78 S7        30.16F WCI  15
GARRISON         N/A     21  14  74 SW5       30.23R WCI  15
HETTINGER ARPT CLOUDY    27  16  63 S5        30.20S
JAMESTOWN      CLOUDY    14   8  77 NW7       30.24R WCI   4
CARRINGTON       N/A     16  14  93 NW5       30.25S WCI   9
HAZEN          CLOUDY    19  14  79 CALM      30.26R
LINTON         CLOUDY    21  14  73 W5        30.28S WCI  15
MANDAN         CLOUDY    21  14  73 SW3       30.26R
OAKES          CLOUDY    10   7  85 NW8       30.25S WCI  -1
STANLEY        CLOUDY    19  18  93 SW6       30.20F WCI  11
WATFORD CITY   PTSUNNY   25  21  86 CALM      30.19S
$$

CITY           SKY/WX    TMP DP  RH WIND       PRES   REMARKS
GRAND FORKS    CLOUDY    11   4  73 N13       30.28R WCI  -4
GRAND FORKS AF CLOUDY    10   4  74 N10       30.27R WCI  -3
DEVILS LAKE    CLOUDY    14  10  84 NW3       30.24R
FARGO          CLOUDY     8   2  76 NW10      30.25S WCI  -6
GRAFTON        CLOUDY     9   5  85 N10       30.30R WCI  -6
GWINNER        CLOUDY    12   9  85 NW8       30.25R WCI   1
LANGDON        CLOUDY    10   7  85 NW8       30.23R WCI  -1
$$

CITY           SKY/WX    TMP DP  RH WIND       PRES   REMARKS
ABERDEEN       CLOUDY    11   5  77 NW5       30.27S WCI   3
MOBRIDGE       CLOUDY    23  13  65 NW3       30.23S
BUFFALO          N/A     25  15  66 SW6       30.12F WCI  18
RAPID CITY     CLOUDY    22  14  71 W3        30.22S
GLASGOW        CLOUDY    29  24  82 W6        30.24S
SIDNEY         CLOUDY    34  21  60 NW12      30.20S
WOLF POINT     CLOUDY    31  25  78 W7        30.24R
GLENDIVE       CLOUDY    34  27  75 NW8       30.24R
MILES CITY     PTCLDY    28  24  85 SE3       30.25R
BAKER          CLOUDY    30  21  69 W12       30.20F
$$

CITY           SKY/WX    TMP DP  RH WIND       PRES   REMARKS
BILLINGS       CLEAR     33  23  66 SW8       30.31R
GREAT FALLS    CLOUDY    41  29  62 SW16      30.31S
$$




USA.gov is the U.S. government's official web portal to all federal, state and local government web resources and services.